ATLAS 5 CENTAUR DEB, 43987

Orbit data source: Space-Track

ATLAS 5 CENTAUR DEB, 43987 is space debris in HEO originally from a launch on Wed, 17 Sep 2014 UTC launched from the Air Force Eastern Test Range (AFETR). Debris objects in space refer to the collection of defunct objects orbiting the Earth. Examples of debris include non-operational satellites, rocket bodies, and fragments generated from explosions, collisions, or faulty payload assembly.

Loading next visibility...
Identifier
43987, 2014-055AS
Orbit
HEO
Country
Flag of USUS
Related business
Flag of USUnited Launch Alliance/Lockheed Martin (US)
Manufacturer
Unknown
Mission
Spacecraft
Bus & Motor
Unknown
Mass
Unknown
Launch date (UTC)
2014-09-17 (11 years ago)
Launch vehicle
Unknown
Launch site
Air Force Eastern Test Range (AFETR)
Object type
Payload
Rocket body
Debris
Shape & HBR
Unknown shape, 1.1 m
Radar Cross Section
Small (<0.1 m²)

Expand to show TLE details & history
Last TLE update: 13 hours ago

TLE from 13 hours ago
0 ATLAS 5 CENTAUR DEB
1 43987U 14055AS  26071.72265602 -.00000061  00000-0  00000-0 0  9990
2 43987  19.9431 154.3893 4963405 144.1256 262.4544  1.84017164 50629
Epoch: 2026-03-12T17:20Z
TLE epoch observation values (Epoch: 2026-03-12T17:20:37.480Z)
Latitude
-0.00001°
Longitude
83.84763°
Altitude
29,109.442 km
Speed
2.88 km/s
True Right ascension
10h 17m 29s
True Declination
0° 00' 00"
Sunlit
Object was in daylight at epoch
Visualization orbit readout
Latitude
Unknown
Longitude
Unknown
Altitude
Unknown
Speed
Unknown
Apparent Right ascension
Unknown
Apparent Declination
Unknown
Sunlit
N/A
Visualization observer readout
Local Sidereal Time
10:51:01
Azimuth
Unknown
Elevation
Unknown
Doppler factor
Unknown
Orbital elements
Apogee altitude
35,716.246 km
Perigee altitude
7,790.587 km
Semi-major axis
28,131.554 km
Eccentricity
0.49634
Inclination
19.9431°
RAAN
154.3893°
Arg. of periapsis
144.1256°
True anomaly
215.83867°
Mean anomaly
262.4544°
Eccentric anomaly
238.26737°
Mean motion
0.45999 °/min
Orbital period
782.62 mins
BSTAR
0
Loading maneuver chart data...
Computing Atmospheric mass density...

Documentation

Showing up to 5 results
|